Location: ??
(35.1715°N, 139.6450°E)
Time: 16:21:49
(UTC+00:00)

Cosmos 1300 - Pass Details

Date: 05 August 2024
Orbit: 453 x 455 km, 82.5° (Epoch: 18 September)

Event Time Altitude Azimuth Distance (km) Brightness Sun altitude
Rises 05:52:36 0° 346° (NNW) 2,504 6.2 45.0°
Reaches altitude 10° 05:54:45 10° 340° (NNW) 1,623 5.4 44.6°
Drops below altitude 10° 06:01:29 10° 193° (SSW) 1,605 5.6 43.2°
Enters shadow 06:30:22 -60° 171° (S) 11,571 9.2 37.4°
Exits shadow 07:02:13 -55° 10° (N) 11,065 9.1 30.9°
Maximum altitude 18:00:17 47° 94° (E) 618 3.3 -20.9°
